Home   Weather   Horw   Past weeks

Flag for Switzerland Past Weather in Horw, Lucerne, Switzerland — Yesterday and Last 2 Weeks

Now
26 °F

Chilly.


Feels Like: 26 °F
Forecast: 23 / 44 °F
Wind: 1 mph from West

Location: Giswil

Current Time: Dec 4, 2016 at 11:17:30 am

Latest Report: Dec 4, 2016 at 10:00 am


Visibility: N/A

Pressure: 30.37 "Hg

Humidity: 99%

Dew Point: 26 °F

Location of HorwLocation

Past Weather in Horw — Graph

°F

Horw Temperature Yesterday

Maximum temperature yesterday: 39 °F (at 2:00 pm)
Minimum temperature yesterday: 21 °F (at 6:00 am)
Average temperature yesterday: 30 °F

High & Low Weather Summary for the Past Weeks

 TemperatureHumidityPressure
High71 °F (Nov 21, 2:00 pm)100% (Nov 19, 7:00 pm)30.67 "Hg (Nov 19, 7:00 pm)
Low21 °F (Dec 3, 6:00 am)24% (Nov 21, 12:00 pm)29.47 "Hg (Nov 21, 10:00 am)
Average39 °F87%30.10 "Hg
* Reported Nov 19 10:00 am — Dec 4 10:00 am, Horw, Weather by CustomWeather, © 2016

Note: Actual official high and low records may vary slightly from our data, if they occured in-between our weather recording intervals... More about our weather records

Advertising

Horw Weather History for the Previous 24 Hours

Scroll right to see more
 ConditionsComfort  
Time TempWeatherWind HumidityBarometerVisibility
10:00 am
Sun, Dec 4
26 °FChilly.1 mph99%30.37 "HgN/A
9:00 am23 °FCold.No wind99%30.37 "HgN/A
8:00 am22 °FCold.1 mph100%30.37 "HgN/A
7:00 am22 °FCold.1 mph99%30.35 "HgN/A
6:00 am23 °FCold.No wind100%30.34 "HgN/A
5:00 am23 °FCold.1 mph99%30.34 "HgN/A
4:00 am22 °FCold.1 mph99%30.34 "HgN/A
3:00 am23 °FCold.2 mph99%30.34 "HgN/A
2:00 am24 °FCold.1 mph99%30.32 "HgN/A
1:00 am24 °FCold.1 mph99%30.32 "HgN/A
12:00 am25 °FCold.1 mph99%30.31 "HgN/A
11:00 pm
Sat, Dec 3
27 °FChilly.2 mph99%30.28 "HgN/A
10:00 pm30 °FChilly.2 mph95%30.26 "HgN/A
9:00 pm35 °FChilly.2 mph78%30.23 "HgN/A
8:00 pm36 °FChilly.2 mph82%30.23 "HgN/A
7:00 pm37 °FChilly.No wind82%30.23 "HgN/A
6:00 pm37 °FChilly.No wind80%30.22 "HgN/A
5:00 pm36 °FChilly.1 mph83%30.19 "HgN/A
4:00 pm38 °FChilly.2 mph76%30.17 "HgN/A
3:00 pm39 °FChilly.1 mph74%30.15 "HgN/A
2:00 pm39 °FChilly.1 mph71%30.15 "HgN/A
1:00 pm37 °FChilly.1 mph82%30.16 "HgN/A
12:00 pm34 °FChilly.2 mph95%30.19 "HgN/A
11:00 am32 °FChilly.No wind96%30.20 "HgN/A
Weather by CustomWeather, © 2016

See weather overviewHow to use our weather pages